Погода в Тотьме

Погода в Тотьме : погода сейчас, прогноз погоды и архив. Всё, что Вы хотите узнать о погоде в Тотьме!

Хотите узнать прогноз погоды в Тотьме? Тогда Вам сюда: Погода в Тотьме

Поиск расширенной информации на нашем сайте:

Другие новости

Новости СМИ2

Главная страница сайта

Новости сайта

03.07.2017

Напоминаем, что на нашем специализированном сайте Метеоцентр.Азия вы можете получить высокодетализированные автоматические прогнозы погоды по пунктам России, СНГ и мира в авиационном формате (включающие направление и скорость ветра, видимость, явления погоды, количество и форму облачности, нижнюю и верхнюю границу облачности).

Рекомендуем: Описание стрижка гитлерюгенд фото у нас на сайте.

Погода в Тотьме - сегодня

Время (UTC), дата Ветер
(°,м/с) 
Видим.   Явления Облачность Т
(°С)
Тd
(°С)
f(%) Тe
(°С)
Pmin
(гПа)
dP
(гПа)
Po
(мм)
O2
(г/м3)
Тmin Tmax R s Состояние
почвы
18 19.07.17 200 (Ю) 10 км  {ливн. осадки}  3/0 средняя 
[Ac trans]
+13.8 +12.2 90 +19  1013.7  0.7  748  285           
21 19.07.17 тихо ()   10 км  местами туман поземный  ясно 
+9.8 +9 95 +10  1014.2  0.2  749  290           
00 20.07.17 тихо ()   10 км  дымка  ясно 
+9.3 +8.7 96 +9  1014.7  0.4  749  290           
03 20.07.17 240 (ЮЗ) 2000 м  дымка{туман}  5/0 верхняя 
[Ci fib]
+10.3 +9.8 97 +12  1015  0.4  749  289  +8.7        влажная 
06 20.07.17 220 (ЮЗ) 10 км  {туман}  3/1 2000 м средняя, верхняя 
[Ac trans|Ci fib]
+16.4 +10.5 68 +19  1014.8  0.1  749  283           
09 20.07.17 280 (З) 10 км    9/6 500 м верхняя 
[Cu med, cong|Ci fib]
+18.1 +9.2 56 +19  1014.1  -0.6  749  281           
12 20.07.17 240 (ЮЗ) 10 км    8/6 480 м кучево-дожд., верхняя 
[Cb cap|Ci fib]
+21 +8.3 44 +21  1012.9  -1  748  278           
15 20.07.17 270 (З) 10 км  {ливн. осадки}  8/8 500 м кучево-дожд., средняя 
[Cb cap|Ac trans]
+19 +10.8 59 +22  1012.7  -0.2  748  280    +21.6     
18 20.07.17 150 (ЮВ) 1{10}  10 км  {гроза, ливн. осадки}  8/6 600 м кучево-дожд., средняя 
[Cb cap|Ac trans]
+13.4 +11.5 88 +18  1013.1  0.4  748  285           
21 20.07.17 240 (ЮЗ) 10 км    10/8 240 м средняя 
[Frnb|Ac trans]
+11.6 +10.8 95 +15  1013.9  0.3  748  287           
00 21.07.17 тихо ()   4000 м  слаб. ливневой дождь  10/8 330 м кучево-дожд., средняя 
[Cb cap|Ac trans]
+11.4 +10.6 95 +13  1014.1  0.2  749  288           
03 21.07.17 120 (ЮВ) 10 км  {ливн. осадки}  8/4 300 м средняя, верхняя 
[Sc|Ac trans|Ci fib]
+11.7 +10.9 95 +15  1013.9  -0.2  748  287  +10.7      влажная 
06 21.07.17 110 (В) 10 км  {ливн. осадки}  4/3 600 м средняя, верхняя 
[Cu Sc|Ac trans|Ci fib]
+17.9 +12.1 69 +23  1013.2  -0.3  748  281           
09 21.07.17 110 (В) 4000 м  слаб. ливневой дождь  9/8 500 м кучево-дожд., средняя, верхняя 
[Cb cap|Ac trans|Ci fib]
+16.7 +10.3 66 +19  1012.9  -0.4  748  282           
12 21.07.17 110 (В) 10 км  {ливн. осадки}  9/3 600 м кучево-дожд., средняя, верхняя 
[Cb cap|Ac trans|Ci fib]
+19.3 +10.3 56 +22  1011.5  -1.2  747  279           
15 21.07.17 040 (СВ) 10 км    9/3 600 м средняя, верхняя 
[Sc diur, vesp|Ac trans|Ci fib]
+18.6 +12.1 66 +24  1011  -0.6  746  279    +21.2  0.0     
18 21.07.17 200 (Ю) 10 км    9/5 600 м кучево-дожд., средняя, верхняя 
[Cb cap|Ac trans|Ci fib]
+15.9 +9.5 66 +18  1011.3  0.2  747  283           
21 21.07.17 350 (С) 10 км    10/5 420 м средняя, верхняя 
[Sc|Ac trans|Ci fib]
+12.8 +10.9 88 +15  1011.4  -0.1  747  285           
00 22.07.17 тихо ()   10 км    8/6 360 м кучево-дожд., средняя 
[Cb cap|Ac trans]
+12.6 +11.3 92 +16  1011.1  -0.3  746  285           
03 22.07.17 330 (СЗ) 10 км    8/5 420 м средняя, верхняя 
[Sc|Ac trans|Ci fib]
+13.3 +11.7 90 +19  1011.4  0.3  747  285  +12.3        влажная 
06 22.07.17 320 (СЗ) 10 км    8/4 300 м средняя, верхняя 
[Sc|Ac trans|Ci fib]
+17.7 +12.4 71 +24  1011.3  0.2  747  280           
09 22.07.17 300 (СЗ) 10 км    9/5 300 м средняя, верхняя 
[Cu Sc|Ac trans|Ci fib]
+20 +12 60 +24  1011  -0.2  747  278           
12 22.07.17 270 (З) 10 км  в посл. час ливневой дождь  9/6 500 м кучево-дожд., средняя, верхняя 
[Cb cap|Ac trans|Ci fib]
+19.5 +11.7 61 +24  1010.5  -0.6  746  278           
15 22.07.17 300 (СЗ) 10 км  в посл. час гроза{ливн. осадки}  9/6 450 м кучево-дожд., средняя, верхняя 
[Cb cap|Ac trans|Ci fib]
+15.7 +11.9 78 +20  1011.2  0.5  746  282    +22.5  0.0     
18 22.07.17 250 (З) 10 км  {гроза, ливн. осадки}  10/3 1500 м средняя, верхняя 
[Sc|Ac trans|Cs]
+14.6 +12.8 89 +20  1010.6  -0.6  746  283           
Время (UTC), дата Ветер
(°,м/с) 
Видим.   Явления Облачность Т
(°С)
Тd
(°С)
f(%) Тe
(°С)
Pmin
(гПа)
dP
(гПа)
Po
(мм)
O2
(г/м3)
Тmin Tmax R s Состояние
почвы

Для получения пояснительной информации подведите курсор к названию столбца.

ПОГОДА в Тотьме - архив

Всё, что Вы хотите узнать о погоде в Тотьме - удобно и подробно!

Выберите нужную дату (начиная с 1 января 2015* года) и нажмите кнопку "Найти".
Будут отображены архивные сводки погоды по пункту Тотьма, начиная с указанной даты.


Отображать данные в формате CSV (для использования в таблицах Excel)


Внимание! Наш архив погоды предназначен исключительно для личного некоммерческого использования в познавательных целях. Если Вам необходимы официальные справки о состоянии погоды (для производственных, юридических, коммерческих и т.п. целей), обращайтесь в органы Росгидромета.

*Примечание: данная дата относится к архиву по метеостанциям СССР (Россия, СНГ, Балтия).
Архив по метеостанциям Зарубежной Европы и Азии (кроме Китая) хранится 10 дней, по другим регионам земного шара (Китай, Африка, Америка, Австралия, Океания) - 1 день.

Тотьма - район местоположения метеостанции


Название, широта, долгота, высота метеостанции:
Тотьма 59.9°ш. 42.8°д. 134 м над ур. моря [Российская Федерация]

Дополнительная информация

В oтличие oт бoльшинства пoгoдных сайтoв мы публикуем пoдрoбную метеoинфoрмацию в детальнoм прoфессиoнальнoм фoрмате.

Характеристики температуры и влажнoсти вoздуха измеряются на высoте 2 м в тени вдали oт зданий и деревьев.
Скoрoсть ветра измеряется на высoте 10 м (на урoвне рoста челoвека скoрoсть ветра ниже в 1.5-2 раза). Если метеoстанция нахoдится в гoрoде или в лесу, тo скoрoсть ветра занижена на 2-4 м/с пo сравнению с oткрытым местoм. Скoрoсть ветра над акватoриями крупных рек и oзёр, а также на вершинах хoлмoв на 2-5 м/с выше, чем в oбычных услoвиях.
Атмoсфернoе давление в разных тoчках местнoсти мoжет значительнo oтличаться oт давления на метеoстанции, в зависимoсти oт услoвий рельефа (при пoдъёме на 10 м давление пoнижается примернo на 1 мм рт.ст.).